Weather in Brazzaville

Congo     4°12′21″S   15°14′33″E
temp.,
°C
wind,
m/s
gust,
m/s
humid.,
%
clouds,
%
prec.,
mm/h
press.,
hPa
HPBL,
m
1 march, mon
mon101:00+26s017350 1.5 1009232
04:00+25w017772 0.7 1008107
07:00+25wnw017874 1.0 1009212
10:00+33w115352 0.1 1009804
13:00+38nne133470 0.2 10061975
16:00+35ne243962 0.0 10031972
19:00+30sw355481 0.0 1006373
22:00+27wsw246993 0.8 1009300
2 march, tue
tue201:00+26wnw127397 1.1 1009256
04:00+25w1279100 0.0 1009205
07:00+26ssw1377100 0.0 1010309
10:00+31sw2355100 0.0 1011912
13:00+35ssw214199 0.6 10081833
16:00+32sw3455100 1.3 10051253
19:00+29sw2462100 2.2 1007547
22:00+27sw1369100 0.0 1009259
3 march, wed
wed301:00+26w127590 0.0 1008191
04:00+25ssw0177100 0.0 1008239
07:00+25wnw1376100 0.0 1011242
10:00+31wsw2352100 0.0 1010935
13:00+34ssw3444100 0.0 10061326
16:00+34ssw444845 0.0 10041534
19:00+29w247033 1.8 1006354
22:00+27wnw2375100 2.7 1009160
4 march, thu
thu401:00+27nne1177100 2.8 1008207
04:00+26w247899 0.4 1008221
07:00+25wsw2480100 0.4 1010309
10:00+27wsw3473100 0.0 1010716
13:00+32wsw3352100 0.0 10071177
16:00+32wsw455699 0.6 10051290
19:00+27sw4873100 1.1 1007438
22:00+26w3776100 0.1 1010331
5 march, fri
fri501:00+25wnw2381100 0.1 1010268
04:00+24wsw2488100 4.9 1010302
07:00+22nne3690100 18.8 1013300
10:00+22ne1489100 9.9 1014311
13:00+24sse3583100 13.1 1012477
16:00+24s3679100 0.1 1009551
19:00+23wsw2678100 0.1 1009290
22:00+22nw1283100 0.0 1011140